Location: Jackson Park
(37.2862°N, 79.9123°W)
Time: 13:49:48
(UTC+00:00)

Tiros 1 despin weight - Pass Details

Date: 17 May 2026
Orbit: 554 x 591 km, 48.2° (Epoch: 6 June)

Event Time Altitude Azimuth Distance (km) Brightness Sun altitude
Rises 08:46:12 0° 223° (SW) 2,765 - -14.8°
Reaches altitude 10° 08:48:30 10° 219° (SW) 1,864 - -14.5°
Exits shadow 08:50:09 22° 211° (SSW) 1,251 ? -14.2°
Maximum altitude 08:52:40 56° 141° (SE) 677 ? -13.8°
Drops below altitude 10° 08:56:49 10° 63° (ENE) 1,851 ? -13.2°
Sets 08:59:05 0° 59° (ENE) 2,744 ? -12.8°
